Terminal Aerodrome Forecast
Issued by NWS Upton, NY

Home | Current Version | Previous Version | Text Only | Print | Product List | Glossary On
Versions: 1 2 3 4 5 6 7 8 9 10 11 12 13 14 15 16 17 18 19 20 21 22 23 24 25 26 27 28 29 30 31 32
000
FTUS41 KOKX 281740
TAFJFK
TAF
KJFK 281740Z 2818/2924 18014KT P6SM FEW050 SCT250
     FM282000 18020G25KT P6SM FEW070 SCT250
     FM290100 20009KT P6SM FEW250
     FM290500 22007KT P6SM SKC
     FM291500 18011KT P6SM FEW250
     FM292000 18020KT P6SM SCT015 BKN150=

USA.gov is the U.S. government's official web portal to all federal, state and local government web resources and services.